map of DBO home
DBO - Airport
Location
City:  Dubbo, New South Wales, Australia
ICAO:YSDU
IATA:DBO

Details
Type:Airport (Aerodrome, Airfield)
Use:Public/Civil
Latitude:3213'00"S (-32.216666)
Longitude:14834'29"E (148.574722)
Datum:WGS 1984
Elevation:935 ft (285 m)
Variation:11.08E (WMM2015 magnetic declination)
0.00 annual change
Runways:2
Longest:5604 × 148 ft (1708 × 45 m), paved

Time
Time Zone:UTC+10 (DST+11)
Local Time:

Weather
METAR:YSDU 300600Z AUTO 29018KT 9999 // SCT023 SCT058 12/09 Q1004
TAF:YSDU 300508Z 3006/3024 30020G30KT 9999 -SHRA SCT025 BKN035
BECMG 3008/3010 30015KT 9999 -SHRA SCT025 BKN035 INTER 3006/3008 4000 SHRA BKN015

Related Locations
Nearby:
Farthest:HOR: 11971 mi / 19265 km
Horta (Faial Island), 20, PT

Find:

   beyond  
but within

Other Information
Maps:
NOTAMs:
Links:
Sources:

  
flag of Australia
flag of New South Wales
  

Sectional Chart

Flight Planning
at skyvector.com

Satellite Image

Google Maps Satellite view

 

Copyright © 2004-2016 Karl L. Swartz. All rights reserved.
The Great Circle Mapper name and logo are trademarks of the Great Circle Mapper.
All other trademarks mentioned herein belong to their respective owners.
Please see credits for attibutions and further copyright information.

  Follow gcmap on Facebook Follow gcmap on Twitter Follow gcmap on Google+ GCmap on LinkedIn

hCard Microformat

Geo Microformat